Regional Weather Roundup
Issued by NWS

Home | Current Version | Previous Version | Graphics & Text | Print | Product List | Glossary On
Versions: 1 2 3 4 5 6 7 8 9 10 11 12 13 14 15 16 17 18 19 20 21 22 23 24 25 26 27 28 29 30 31 32 33 34 35 36 37 38 39 40 41 42 43 44 45 46 47 48 49 50
978
ASUS44 KMEG 101600
RWRTN
TENNESSEE HOURLY STATE WEATHER ROUNDUP
NATIONAL WEATHER SERVICE MEMPHIS TN
1000 AM CST WED FEB 10 2016

TNZ002-004-019-021-049-052-054-088>092-101700-
WEST TENNESSEE

CITY           SKY/WX    TMP DP  RH WIND       PRES   REMARKS
MEMPHIS INTL   SUNNY     32   9  38 W8        30.29S WCI  25
NWS MEMPHIS      N/A     29 N/A N/A MISG        N/A
JACKSON        SUNNY     27   8  44 NW10      30.28R WCI  17
DYERSBURG      SUNNY     25   9  50 NW8       30.30R WCI  16
UNION CITY     SUNNY     21   9  58 W6        30.24F WCI  14
PARIS          SUNNY     19   7  58 W8        30.24R WCI   9
$$

TNZ008-025-027-028-033-062-065-066-101700-
NORTH MIDDLE TENNESSEE

CITY           SKY/WX    TMP DP  RH WIND       PRES   REMARKS
NASHVILLE      MOSUNNY   23   9  55 W13       30.21R WCI  11
CLARKSVILLE    SUNNY     20  11  68 NW8       30.21S WCI  10
COOKEVILLE     MOSUNNY   21  10  63 NW9       30.12F WCI  11
CROSSVILLE     MOSUNNY   17   5  59 W13G24    30.05R WCI   4
$$

TNZ061-075-076-078-094-096-097-101700-
SOUTH MIDDLE TENNESSEE

CITY           SKY/WX    TMP DP  RH WIND       PRES   REMARKS
TULLAHOMA      CLOUDY    19  16  86 NW8       30.16R WCI   9
WINCHESTER     CLOUDY    21  10  63 NW8       30.17R WCI  12
MCMINNVILLE    MOSUNNY   21  10  63 NW9       30.15S WCI  11
COLUMBIA       SUNNY     25  12  58 VRB7      30.20R WCI  17
SHELBYVILLE    CLOUDY    23  16  74 NW8       30.20R WCI  14
$$

TNZ017-018-042-046-047-101700-
NORTHEAST TENNESSEE

CITY           SKY/WX    TMP DP  RH WIND       PRES   REMARKS
TRI CITIES     CLOUDY    20   7  57 W18G29    30.00R WCI   5
$$

TNZ012-013-036-069-073-074-101700-
CENTRAL EAST TENNESSEE

CITY           SKY/WX    TMP DP  RH WIND       PRES   REMARKS
KNOXVILLE      PTSUNNY   23   8  52 W13G23    30.11R WCI  11
OAK RIDGE      CLOUDY    25   7  46 W8G22     30.12R WCI  16
GATLINBURG     CLOUDY    19   7  58 W12       30.09R WCI   7
$$

TNZ083-085-099-101700-
SOUTHEAST TENNESSEE

CITY           SKY/WX    TMP DP  RH WIND       PRES   REMARKS
CHATTANOOGA    PTSUNNY   26  10  50 W10       30.17R WCI  16
$$

SKY/WX REPORTED AS FAIR MEANS FEW OR NO CLOUDS BELOW
12 THOUSAND FEET.





USA.gov is the U.S. government's official web portal to all federal, state and local government web resources and services.